Location: Écuvilly
(49.6505°N, 2.9206°E)
Time: 06:45:31
(UTC+00:00)

COSMOS 2406 - Pass Details

Date: 17 November 2025
Orbit: 845 x 859 km, 71.0° (Epoch: 10 December)

Event Time Altitude Azimuth Distance (km) Brightness Sun altitude
Rises 18:18:00 0° 331° (NNW) 3,417 6.7 -21.6°
Reaches altitude 10° 18:20:28 10° 332° (NNW) 2,479 5.9 -22.0°
Maximum altitude 18:26:11 85° 61° (ENE) 858 3.1 -23.0°
Enters shadow 18:29:08 30° 149° (SSE) 1,481 4.2 -23.4°
